Weather History for Montrose, CO

Change the Weather History Date:

Sunday, March 17, 2013

  Actual Average Record
Temperature  
Mean Temperature 45 °F 42 °F  
Max Temperature 59 °F 55 °F 73 °F (2007)
Min Temperature 31 °F 28 °F 25 °F (2002)
Degree Days  
Heating Degree Days 20 23  
Month to date heating degree days 386 438  
Since 1 July heating degree days 5070 5153  
Cooling Degree Days 0 0  
Month to date cooling degree days 0 0  
Year to date cooling degree days 0 0  
Moisture  
Dew Point 21 °F    
Average Humidity 54    
Maximum Humidity 92    
Minimum Humidity 15    
Precipitation  
Precipitation 0.00 in 0.03 in 0.29 in (2001)
Month to date precipitation 0.36 0.54  
Year to date precipitation 1.17 1.77  
Sea Level Pressure  
Sea Level Pressure 29.75 in    
Wind  
Wind Speed 12 mph (West)    
Max Wind Speed 36 mph    
Max Gust Speed 43 mph    
Visibility 10 miles    
Events      
T = Trace of Precipitation, MM = Missing Value Source: NWS Daily Summary

Daily Weather History Graph

Daily Weather History Graph

Search for Another Location

Airport:

Trip Planner

Search our weather history database for the weather conditions in past years. The results will help you decide how hot, cold, wet, or windy it might be!

Date:

Astronomy

Mar. 17, 2013 Rise Set
Actual Time 7:19 AM MDT 7:20 PM MDT
Civil Twilight 6:52 AM MDT 7:47 PM MDT
Nautical Twilight 6:22 AM MDT 8:18 PM MDT
Astronomical Twilight 5:50 AM MDT 8:49 PM MDT
Moon 10:38 AM MDT (3/17) 12:27 AM MDT (3/17)
Length of Visible Light 12h 54m
Length of Day
12h 01m
Waxing Crescent, 32% of the Moon is Illuminated
Mar 17
Waxing Crescent
Mar 19
First Quarter
Mar 27
Full
Apr 2
Last Quarter
Apr 10
New

Hourly Weather History & Observations

Time (MDT) Temp. Windchill Dew Point Humidity Pressure Visibility Wind Dir Wind Speed Gust Speed Precip Events Conditions
12:53 AM 34.0 °F 29.8 °F 30.9 °F 89% 29.83 in 10.0 mi ESE 4.6 mph - N/A   Clear
1:53 AM 32.0 °F 26.4 °F 30.0 °F 92% 29.82 in 10.0 mi SSE 5.8 mph - N/A   Clear
2:53 AM 30.9 °F 25.2 °F 28.0 °F 89% 29.80 in 10.0 mi SSE 5.8 mph - N/A   Clear
3:53 AM 30.9 °F 24.3 °F 27.0 °F 85% 29.76 in 10.0 mi SSE 6.9 mph - N/A   Partly Cloudy
4:53 AM 35.1 °F 27.9 °F 27.0 °F 72% 29.71 in 10.0 mi SSE 9.2 mph - N/A   Clear
5:53 AM 34.0 °F - 28.0 °F 79% 29.72 in 10.0 mi Calm Calm - N/A   Scattered Clouds
6:53 AM 33.1 °F - 30.0 °F 89% 29.73 in 10.0 mi Calm Calm - N/A   Clear
7:53 AM 36.0 °F 27.5 °F 30.9 °F 82% 29.77 in 10.0 mi North 12.7 mph 17.3 mph N/A   Overcast
8:53 AM 37.9 °F 32.7 °F 30.9 °F 76% 29.78 in 10.0 mi SSE 6.9 mph - N/A   Mostly Cloudy
9:53 AM 43.0 °F 37.2 °F 32.0 °F 65% 29.76 in 10.0 mi SSE 10.4 mph - N/A   Overcast
10:53 AM 48.9 °F - 30.9 °F 50% 29.73 in 10.0 mi SE 5.8 mph - N/A   Scattered Clouds
11:53 AM 53.1 °F - 27.0 °F 37% 29.68 in 10.0 mi Calm Calm - N/A   Partly Cloudy
12:53 PM 53.1 °F - 26.1 °F 35% 29.68 in 10.0 mi NNW 12.7 mph - N/A   Mostly Cloudy
2:53 PM 57.9 °F - 12.9 °F 17% 29.65 in 10.0 mi WNW 19.6 mph 26.5 mph N/A   Scattered Clouds
3:53 PM 57.9 °F - 10.9 °F 16% 29.64 in 7.0 mi West 32.2 mph 41.4 mph N/A   Partly Cloudy
4:53 PM 55.9 °F - 9.0 °F 15% 29.66 in 10.0 mi WNW 28.8 mph 35.7 mph N/A   Clear
5:53 PM 54.0 °F - 8.1 °F 16% 29.70 in 10.0 mi WNW 28.8 mph 39.1 mph N/A   Partly Cloudy
6:53 PM 52.0 °F - 10.9 °F 19% 29.74 in 10.0 mi WNW 16.1 mph 27.6 mph N/A   Scattered Clouds
7:53 PM 48.9 °F - 7.0 °F 18% 29.77 in 10.0 mi WNW 18.4 mph 26.5 mph N/A   Clear
8:53 PM 45.0 °F 39.3 °F 8.1 °F 22% 29.81 in 10.0 mi NW 11.5 mph 21.9 mph N/A   Partly Cloudy
9:53 PM 41.0 °F 36.4 °F 8.1 °F 26% 29.83 in 10.0 mi WNW 6.9 mph - N/A   Clear
10:53 PM 39.0 °F 34.0 °F 9.0 °F 29% 29.84 in 10.0 mi NW 6.9 mph - N/A   Clear
11:53 PM 33.1 °F - 12.0 °F 42% 29.88 in 10.0 mi Calm Calm - N/A   Clear